COSMOS 2534 (758)

Last updated on Sun Oct 26 2025 00:03:29 GMT+0000 (Coordinated Universal Time)

1 44299U 19030A 25298.16842027 .00000027 00000+0 00000+0 0 9994 2 44299 64.3654 200.5288 0010503 281.1750 279.1869 2.13102189 49918
UTC large
Height (km)
Speed (km/s)
/
Latitude / Longitude
Inclination (degrees)
Orbital Period (minutes)
Azimuth
Elevation
Range (km)
Doppler Factor

Next 0 passes for location: London (51.5072 / 0.1276)

Sorry there are no passes over London.